Lid_Strength_Index
3 3 3 2 3 3 3 2 2 1 1 1 1 1 1 1 1 1 1 1 1 1
3 3 2 2 2 3 2 2 1 1 1 1 1 1 1 1 1 1 1 1 1 1
3 3 2 2 2 2 2 1 1 1 1 1 1 1 1 1 0 1 1 1 1 1
2 3 2 2 2 2 2 1 1 1 1 1 1 2 1 1 2 1 1 1 1 1
2 2 2 2 2 2 2 1 1 1 1 1 2 1 1 1 1 1 2 1 1 2
2 3 3 3 2 2 2 1 1 1 1 1 1 2 2 1 1 1 1 1 1 1
3 3 2 2 2 2 1 2 1 1 1 1 1 1 1 1 1 1 1 1 1 1
3 2 2 2 2 2 1 1 1 1 1 1 1 1 1 1 1 1 1 1 1 1
3 2 2 2 2 2 2 1 1 1 1 1 1 7 5 2 1 1 1 2 2 2
2 2 2 2 2 2 2 2 2 2 2 1 2 9 7 5 1 1 1 1 1 1
2 3 3 2 2 3 3 3 3 3 2 2 3 9 8 6 1 2 1 1 1 1
3 3 3 3 3 3 4 4 3 3 2 2 4 9 9 3 1 1 1 1 1 1
3 3 3 3 4 4 3 4 4 4 3 5 3 10 9 4 1 2 2 2 2 5
2 3 3 3 3 4 3 4 4 5 5 4 4 5 10 7 1 2 3 2 3 2